Change the Weather History Date:

Saturday, June 21, 2014

  Actual Average Record
Temperature  
Mean Temperature 72 °F 77 °F  
Max Temperature 75 °F 86 °F 99 °F (2012)
Min Temperature 69 °F 68 °F 51 °F (1940)
Degree Days  
Heating Degree Days 0 0  
Month to date heating degree days 0 5  
Since 1 June heating degree days 0 5  
Since 1 July heating degree days 4121 4030  
Cooling Degree Days 7 12  
Month to date cooling degree days 246 196  
Year to date cooling degree days 415 330  
Since 1 June cooling degree days 246 196  
Growing Degree Days 21 (Base 50)    
Moisture  
Dew Point 59 °F    
Average Humidity 63    
Maximum Humidity 73    
Minimum Humidity 53    
Precipitation  
Precipitation T in 0.13 in 6.11 in (1972)
Month to date precipitation 2.77 2.65  
Year to date precipitation 25.06 18.61  
Snow  
Snow 0.00 in 0.00 in - ()
Month to date snowfall 0.0 0.0  
Since 1 July snowfall 32.0 15.4  
Snow Depth 0.00 in    
Sea Level Pressure  
Sea Level Pressure 29.92 in    
Wind  
Wind Speed 7 mph (East)    
Max Wind Speed 15 mph    
Max Gust Speed 17 mph    
Visibility 10 miles    
Events Rain    
T = Trace of Precipitation, MM = Missing Value Source: NWS Daily Summary

Daily Weather History Graph

Daily Weather History Graph

Search for Another Location

Airport or City:

Trip Planner

Search our weather history database for the weather conditions in past years. The results will help you decide how hot, cold, wet, or windy it might be!

Date:

Astronomy

Jun. 21, 2014 Rise Set
Actual Time 5:43 AM EDT 8:36 PM EDT
Civil Twilight 5:11 AM EDT 9:08 PM EDT
Nautical Twilight 4:30 AM EDT 9:49 PM EDT
Astronomical Twilight 3:44 AM EDT 10:35 PM EDT
Moon 1:52 AM EDT (6/21) 3:15 PM EDT (6/21)
Length of Visible Light 15h 57m
Length of Day
14h 53m
Waning Crescent, 30% of the Moon is Illuminated
Jun 21
Waning Crescent
Jun 27
New
Jul 5
First Quarter
Jul 12
Full
Jul 18
Last Quarter

Hourly Weather History & Observations

Time (EDT) Temp. Dew Point Humidity Pressure Visibility Wind Dir Wind Speed Gust Speed Precip Events Conditions
12:52 AM 73.9 °F 55.0 °F 52% 29.94 in 10.0 mi SE 3.5 mph - 0.00 in Rain Light Rain
1:52 AM 73.9 °F 55.9 °F 53% 29.93 in 10.0 mi SE 3.5 mph - 0.00 in Rain Light Rain
2:52 AM 73.9 °F 57.0 °F 55% 29.94 in 10.0 mi South 4.6 mph - 0.00 in   Overcast
3:52 AM 73.0 °F 61.0 °F 66% 29.92 in 10.0 mi SSW 6.9 mph - N/A   Overcast
4:52 AM 71.1 °F 61.0 °F 70% 29.93 in 10.0 mi SSW 5.8 mph - N/A   Overcast
5:52 AM 71.1 °F 63.0 °F 75% 29.92 in 10.0 mi SSE 5.8 mph - N/A   Overcast
6:22 AM 71.6 °F 62.6 °F 73% 29.93 in 10.0 mi South 6.9 mph - N/A   Overcast
6:52 AM 70.0 °F 63.0 °F 78% 29.93 in 10.0 mi South 6.9 mph - 0.00 in Rain Light Rain
7:52 AM 70.0 °F 60.1 °F 71% 29.94 in 10.0 mi SSW 3.5 mph - 0.00 in Rain Light Rain
8:52 AM 72.0 °F 55.9 °F 57% 29.95 in 10.0 mi Calm Calm - 0.00 in Rain Light Rain
9:52 AM 71.1 °F 57.9 °F 63% 29.95 in 10.0 mi NNE 11.5 mph - 0.00 in Rain Light Rain
10:52 AM 72.0 °F 59.0 °F 64% 29.95 in 10.0 mi NNE 6.9 mph - 0.00 in   Overcast
11:52 AM 73.0 °F 57.0 °F 57% 29.94 in 10.0 mi East 4.6 mph - N/A   Overcast
12:52 PM 73.0 °F 55.9 °F 55% 29.92 in 10.0 mi ENE 10.4 mph - N/A   Overcast
1:52 PM 73.0 °F 61.0 °F 66% 29.92 in 10.0 mi NNE 8.1 mph - N/A   Overcast
2:52 PM 72.0 °F 61.0 °F 68% 29.91 in 10.0 mi NE 8.1 mph - N/A   Overcast
3:52 PM 73.9 °F 61.0 °F 64% 29.90 in 10.0 mi NE 9.2 mph - N/A   Overcast
4:52 PM 73.0 °F 60.1 °F 64% 29.89 in 10.0 mi ENE 8.1 mph - N/A   Overcast
5:52 PM 73.9 °F 59.0 °F 59% 29.89 in 10.0 mi ENE 6.9 mph - N/A   Overcast
6:52 PM 73.0 °F 59.0 °F 61% 29.88 in 10.0 mi NE 5.8 mph - N/A   Overcast
7:52 PM 72.0 °F 57.9 °F 61% 29.90 in 10.0 mi NNE 9.2 mph - N/A   Overcast
8:52 PM 72.0 °F 55.9 °F 57% 29.90 in 10.0 mi NE 8.1 mph - N/A   Overcast
9:52 PM 72.0 °F 57.0 °F 59% 29.91 in 10.0 mi NE 9.2 mph - N/A   Overcast
10:52 PM 72.0 °F 57.9 °F 61% 29.93 in 10.0 mi NE 5.8 mph - N/A   Overcast
11:52 PM 72.0 °F 59.0 °F 64% 29.92 in 10.0 mi ENE 8.1 mph - N/A   Overcast